"Pseudo-MPEC" for RFD0345

Created 2026 Aug 14 0:35:29 UT using Find_Orb

Click here for an explanation of pseudo-MPECs

 
 Astrometry: 
     RFD0345*#C2026 08 08.00025922 00 44.206-12 23 46.71   ~88JZ 20.7 rVNEOCPJ13
     RFD0345 #C2026 08 08.00057122 01 17.339-12 23 08.09   ~88JZ 20.8 rVNEOCPJ13

Station data:
(J13) La Palma-Liverpool Telescope  (N28.762514 W17.879200)  Canary Islands
   (Spain).  Observer F. D. Romanov. Measurers C. Barache, S. Bouquillon, T.
   Carlucci, F. Taris. 2.0-m f/10 Ritchey-Chrétien + CCD.

Orbital elements:  RFD0345
   Perigee 2026 Aug 8.050838 +/- 32.4 TT =  1:13:12.3 (JD 2461260.550838)
Epoch 2026 Aug  8.0 TT = JDT 2461260.5                           AutoNEOCP
q 59872.05145 +/- 3.03e+7           (J2000 equator)
H   37.09 G 0.15                    Peri.  324.695847 +/- 56
                                    Node    25.628694 +/- 43
e   4.23778522 +/- 0.219            Incl.   10.339109 +/- 1.4
From 2 observations 2026 Aug. 8 (27.0 sec); mean residual 0".00
Residuals in arcseconds: 
260808 J13  .01+  .00     260808 J13  .01+  .00     

Ephemerides (geocentric):
Date (UTC) HH   RA             Dec           delta  r     elong  mag " sig PA
---- --------  ------------   ------------  ------ ------ -----  --- --------
2026 08 14 01  06 08 01.480   +09 38 22.62  .01644 1.0026  50.3 33??  63d  96
2026 08 14 02  06 08 04.771   +09 38 27.30  .01655 1.0026  50.3 33??  63d  97
2026 08 14 03  06 08 08.025   +09 38 31.95  .01666 1.0025  50.4 33??  62d  97
2026 08 14 04  06 08 11.244   +09 38 36.56  .01677 1.0024  50.4 33??  62d  97
2026 08 14 05  06 08 14.427   +09 38 41.13  .01689 1.0024  50.4 33??  62d  97
2026 08 14 06  06 08 17.576   +09 38 45.66  .01700 1.0023  50.4 33??  62d  97
2026 08 14 07  06 08 20.691   +09 38 50.16  .01711 1.0022  50.5 33??  61d  97
2026 08 14 08  06 08 23.774   +09 38 54.63  .01722 1.0021  50.5 33??  61d  97
2026 08 14 09  06 08 26.824   +09 38 59.07  .01734 1.0021  50.5 33??  61d  97
2026 08 14 10  06 08 29.843   +09 39 03.47  .01745 1.0020  50.5 33??  60d  97
2026 08 14 11  06 08 32.832   +09 39 07.84  .01756 1.0019  50.6 33??  60d  97
2026 08 14 12  06 08 35.790   +09 39 12.18  .01767 1.0019  50.6 33??  62d  96
2026 08 14 13  06 08 38.718   +09 39 16.49  .01778 1.0018  50.6 33??  63d  96
2026 08 14 14  06 08 41.618   +09 39 20.78  .01790 1.0017  50.6 33??  63d  96
2026 08 14 15  06 08 44.489   +09 39 25.03  .01801 1.0016  50.7 33??  63d  96
2026 08 14 16  06 08 47.333   +09 39 29.26  .01812 1.0016  50.7 33??  63d  97
2026 08 14 17  06 08 50.149   +09 39 33.46  .01823 1.0015  50.7 34??  63d  97
2026 08 14 18  06 08 52.939   +09 39 37.64  .01835 1.0014  50.7 34??  62d  97
2026 08 14 19  06 08 55.702   +09 39 41.79  .01846 1.0014  50.8 34??  62d  97
2026 08 14 20  06 08 58.441   +09 39 45.92  .01857 1.0013  50.8 34??  62d  97
2026 08 14 21  06 09 01.154   +09 39 50.02  .01868 1.0012  50.8 34??  62d  97
2026 08 14 22  06 09 03.842   +09 39 54.11  .01879 1.0011  50.9 34??  61d  97
2026 08 14 23  06 09 06.507   +09 39 58.17  .01891 1.0011  50.9 34??  61d  97
2026 08 15 00  06 09 09.148   +09 40 02.20  .01902 1.0010  50.9 34??  61d  96
2026 08 15 01  06 09 11.766   +09 40 06.22  .01913 1.0009  50.9 34??  60d  97
2026 08 15 02  06 09 14.362   +09 40 10.22  .01924 1.0009  51.0 34??  61d  96
2026 08 15 03  06 09 16.935   +09 40 14.20  .01936 1.0008  51.0 34??  64d  95
2026 08 15 04  06 09 19.487   +09 40 18.16  .01947 1.0007  51.0 34??  63d  96
2026 08 15 05  06 09 22.017   +09 40 22.10  .01958 1.0007  51.0 34??  63d  96
2026 08 15 06  06 09 24.527   +09 40 26.02  .01969 1.0006  51.1 34??  63d  96
2026 08 15 07  06 09 27.016   +09 40 29.92  .01980 1.0005  51.1 34??  63d  97
2026 08 15 08  06 09 29.485   +09 40 33.81  .01992 1.0005  51.1 34??  62d  97
2026 08 15 09  06 09 31.934   +09 40 37.68  .02003 1.0004  51.2 34??  62d  97
2026 08 15 10  06 09 34.365   +09 40 41.54  .02014 1.0003  51.2 34??  62d  97
2026 08 15 11  06 09 36.776   +09 40 45.38  .02025 1.0002  51.2 34??  62d  97
2026 08 15 12  06 09 39.169   +09 40 49.20  .02036 1.0002  51.2 34??  62d  97
2026 08 15 13  06 09 41.543   +09 40 53.01  .02048 1.0001  51.3 34??  61d  96
2026 08 15 14  06 09 43.900   +09 40 56.81  .02059 1.0000  51.3 34??  61d  96
2026 08 15 15  06 09 46.239   +09 41 00.59  .02070 1.0000  51.3 34??  60d  97
2026 08 15 16  06 09 48.561   +09 41 04.36  .02081 0.9999  51.4 34??  61d  96
2026 08 15 17  06 09 50.867   +09 41 08.11  .02093 0.9998  51.4 34??  63d  95
2026 08 15 18  06 09 53.156   +09 41 11.86  .02104 0.9998  51.4 34??  64d  95
2026 08 15 19  06 09 55.428   +09 41 15.59  .02115 0.9997  51.4 34??  64d  96
2026 08 15 20  06 09 57.685   +09 41 19.31  .02126 0.9996  51.5 34??  63d  96
2026 08 15 21  06 09 59.927   +09 41 23.02  .02137 0.9996  51.5 34??  63d  96
2026 08 15 22  06 10 02.153   +09 41 26.71  .02149 0.9995  51.5 34??  63d  96
2026 08 15 23  06 10 04.364   +09 41 30.40  .02160 0.9994  51.6 34??  62d  96
2026 08 16 00  06 10 06.561   +09 41 34.08  .02171 0.9994  51.6 34??  62d  96